Winslow, AZ

7:41 AM MST on December 04, 2016 (GMT -0700)
Winslow-Lindbergh Regional

Weather History for KINW - October, 2013

Change the Weather History Date:

Tuesday, October 29, 2013

  Actual Average Record
Temperature  
Mean Temperature 51 °F 51 °F  
Max Temperature 65 °F 68 °F 86 °F (1950)
Min Temperature 36 °F 34 °F 18 °F (1917)
Degree Days  
Heating Degree Days 14 14  
Month to date heating degree days 337 247  
Since 1 July heating degree days 370 278  
Cooling Degree Days 0 0  
Month to date cooling degree days 0 6  
Year to date cooling degree days 1380 1207  
Growing Degree Days 2 (Base 50)    
Moisture  
Dew Point 32 °F    
Average Humidity 43    
Maximum Humidity 59    
Minimum Humidity 26    
Precipitation  
Precipitation T in 0.02 in 0.87 in (1987)
Month to date precipitation 0.25 0.50  
Year to date precipitation 6.88 5.91  
Sea Level Pressure  
Sea Level Pressure 29.80 in    
Wind  
Wind Speed 19 mph (SW)    
Max Wind Speed 41 mph    
Max Gust Speed 51 mph    
Visibility 10 miles    
Events Rain    
T = Trace of Precipitation, MM = Missing Value Source: NWS Daily Summary

Daily Weather History Graph

Daily Weather History Graph

Search for Another Location

Airport or City:

Trip Planner

Search our weather history database for the weather conditions in past years. The results will help you decide how hot, cold, wet, or windy it might be!

Date:

Astronomy

Oct. 29, 2013 Rise Set
Actual Time 6:41 AM MST 5:31 PM MST
Civil Twilight 6:15 AM MST 5:57 PM MST
Nautical Twilight 5:45 AM MST 6:27 PM MST
Astronomical Twilight 5:16 AM MST 6:56 PM MST
Moon 1:46 AM MST (10/29) 2:36 PM MST (10/29)
Length of Visible Light 11h 41m
Length of Day
10h 49m
Waning Crescent, 24% of the Moon is Illuminated
Oct 29
Waning Crescent
Nov 3
New
Nov 9
First Quarter
Nov 17
Full
Nov 25
Last Quarter

Hourly Weather History & Observations

Time (MST) Temp. Windchill Dew Point Humidity Pressure Visibility Wind Dir Wind Speed Gust Speed Precip Events Conditions
12:56 AM 54.0 °F - 34.0 °F 47% 29.73 in 10.0 mi South 21.9 mph 31.1 mph N/A   Clear
1:56 AM 53.1 °F - 34.0 °F 48% 29.75 in 10.0 mi SSW 18.4 mph - N/A   Clear
2:56 AM 52.0 °F - 34.0 °F 50% 29.75 in 10.0 mi South 16.1 mph - N/A   Clear
3:56 AM 52.0 °F - 34.0 °F 50% 29.75 in 10.0 mi SSW 13.8 mph - N/A   Clear
4:56 AM 54.0 °F - 34.0 °F 47% 29.76 in 10.0 mi SSW 23.0 mph 32.2 mph N/A   Clear
5:56 AM 52.0 °F - 35.1 °F 53% 29.78 in 10.0 mi SSW 18.4 mph - N/A   Clear
6:56 AM 51.1 °F - 36.0 °F 56% 29.79 in 10.0 mi SSW 15.0 mph - N/A   Clear
7:56 AM 55.9 °F - 35.1 °F 45% 29.78 in 10.0 mi SSW 32.2 mph 36.8 mph N/A   Clear
8:56 AM 60.1 °F - 33.1 °F 36% 29.78 in 10.0 mi South 31.1 mph 47.2 mph N/A   Clear
9:56 AM 63.0 °F - 32.0 °F 31% 29.76 in 10.0 mi South 36.8 mph 44.9 mph N/A   Clear
10:56 AM 64.0 °F - 30.9 °F 29% 29.76 in 10.0 mi South 29.9 mph 40.3 mph N/A   Clear
11:56 AM 64.0 °F - 28.0 °F 26% 29.75 in 10.0 mi SSW 28.8 mph 36.8 mph N/A   Partly Cloudy
12:56 PM 62.1 °F - 30.0 °F 30% 29.74 in 10.0 mi SSW 24.2 mph 31.1 mph N/A   Overcast
1:56 PM 59.0 °F - 28.9 °F 32% 29.75 in 10.0 mi SSW 33.4 mph 43.7 mph 0.00 in Rain Light Rain
2:56 PM 60.1 °F - 32.0 °F 35% 29.72 in 10.0 mi SSW 28.8 mph 38.0 mph 0.00 in   Scattered Clouds
3:56 PM 57.0 °F - 35.1 °F 44% 29.76 in 10.0 mi West 23.0 mph 28.8 mph N/A   Overcast
4:35 PM 53.6 °F - 35.6 °F 51% 29.89 in 10.0 mi West 15.0 mph 24.2 mph 0.00 in   Mostly Cloudy
4:44 PM 53.6 °F - 35.6 °F 51% 29.89 in 10.0 mi WSW 17.3 mph - 0.00 in   Mostly Cloudy
4:56 PM 52.0 °F - 35.1 °F 53% 29.80 in 10.0 mi WSW 15.0 mph 20.7 mph 0.00 in   Mostly Cloudy
5:56 PM 52.0 °F - 28.0 °F 40% 29.80 in 10.0 mi SW 18.4 mph 27.6 mph N/A   Clear
6:56 PM 48.9 °F - 28.0 °F 44% 29.87 in 10.0 mi WNW 6.9 mph - N/A   Clear
7:56 PM 46.9 °F - 28.0 °F 48% 29.87 in 10.0 mi West 6.9 mph - N/A   Clear
8:56 PM 43.0 °F - 28.0 °F 56% 29.89 in 10.0 mi Calm Calm - N/A   Clear
9:56 PM 39.9 °F 34.5 °F 26.1 °F 58% 29.89 in 10.0 mi WNW 8.1 mph - N/A   Clear
10:56 PM 39.9 °F 36.7 °F 27.0 °F 60% 29.90 in 10.0 mi WSW 4.6 mph - N/A   Clear
11:56 PM 41.0 °F - 28.9 °F 62% 29.90 in 10.0 mi Calm Calm - N/A   Clear